Date,TemperatureHighF,TemperatureAvgF,TemperatureLowF,DewpointHighF,DewpointAvgF,DewpointLowF,HumidityHigh,HumidityAvg,HumidityLow,PressureMaxIn,PressureMinIn,WindSpeedMaxMPH,WindSpeedAvgMPH,GustSpeedMaxMPH,PrecipitationSumIn
2013-2-1,30.6,28.7,27.0,29.1,27.0,25.5,94,94,93,29.94,29.63,13,4,13,0.00
2013-2-2,34.9,31.3,28.4,33.3,29.5,26.6,94,93,92,29.63,29.30,10,4,10,0.01
2013-2-3,39.2,31.8,25.2,37.1,29.8,23.1,93,92,90,29.45,29.20,10,2,10,0.03
2013-2-4,37.3,29.6,20.2,35.4,27.6,17.9,94,92,90,29.61,29.45,9,1,9,0.02
2013-2-5,32.2,23.9,17.6,29.9,21.7,14.9,93,91,89,29.62,29.49,5,1,5,0.01
2013-2-6,30.1,25.5,19.8,28.3,23.5,17.3,93,92,90,29.62,29.45,4,0,4,0.00
2013-2-7,31.3,26.7,22.0,29.5,24.8,19.7,93,92,91,29.58,29.23,7,1,7,0.00
2013-2-8,32.0,27.8,24.8,29.6,25.9,22.9,93,92,91,29.72,29.36,2,0,2,0.00
2013-2-9,41.2,32.8,28.4,36.6,30.6,26.6,94,91,82,29.65,29.19,14,2,14,0.17
2013-2-12,28.4,26.2,22.7,24.8,22.9,20.2,91,87,84,29.72,29.66,8,0,8,0.00
2013-2-13,34.4,26.4,19.8,30.3,23.5,16.8,91,89,85,29.79,29.57,11,2,11,0.01
2013-2-14,35.1,31.9,25.9,29.9,27.0,22.9,89,82,74,29.57,29.19,24,5,24,0.00
2013-2-15,33.3,24.7,9.7,26.5,20.2,5.3,91,83,66,29.90,29.47,13,2,13,0.00
2013-2-16,27.7,17.4,4.7,19.9,12.1,0.5,88,80,64,29.98,29.70,18,3,18,0.00
2013-2-17,26.8,23.3,20.7,23.6,20.4,17.6,90,88,85,29.77,29.55,20,5,20,0.00
2013-2-18,23.8,8.7,-3.6,17.6,4.2,-7.8,88,82,71,29.89,29.76,7,1,7,0.02
2013-2-19,17.5,11.3,1.3,14.1,7.0,-3.2,88,83,77,29.83,29.21,16,4,16,0.00
2013-2-20,31.7,22.7,17.3,25.0,18.3,14.0,88,84,75,29.22,29.04,17,3,17,0.00
2013-2-21,34.9,25.5,16.9,29.7,21.7,13.6,89,86,80,29.23,29.09,6,1,6,0.00
2013-2-24,33.1,27.5,18.5,29.0,24.0,15.2,88,86,83,29.58,29.44,10,3,10,0.00
2013-2-25,36.4,24.2,7.6,31.2,20.2,4.0,91,85,78,29.61,29.49,13,4,13,0.01
2013-2-26,42.3,31.7,27.2,27.4,22.4,18.5,82,69,52,29.50,29.23,17,6,17,0.03
2013-2-27,40.9,29.5,21.2,30.3,21.4,13.9,82,72,64,29.24,29.15,11,4,11,0.01
2013-2-28,38.9,30.5,25.6,31.0,25.1,21.4,87,80,68,29.34,29.24,10,3,10,0.00